This demonstration page uses our WeatherBlox Daily Observations layout. Learn more.

Left ArrowRight Arrow

Hourly Observations for October 31, 2016

Temp ( °F °C ) Dew Point ( °F °C ) Humidity (%) Winds ( mph kmh ) Pressure ( in mb ) Visibility ( mi km ) Precip ( " mm )
12:15 am 00:15 Clear 46 8 39 4 76 76 S 9 15 30.03 1017 10 16 0.00 0.00
12:35 am 00:35 Clear 46 8 39 4 76 76 S 10 17 30.03 1017 10 16 0.00 0.00
12:55 am 00:55 Clear 46 8 41 5 82 82 S 10 17 29.97 1015 10 16 0.00 0.00
1:15 am 01:15 Clear 46 8 43 6 87 87 S 12 19 29.97 1015 10 16 0.00 0.00
1:35 am 01:35 Clear 46 8 43 6 87 87 S 12 19 29.97 1015 10 16 0.00 0.00
1:55 am 01:55 Clear 46 8 43 6 87 87 S 10 17 29.97 1015 10 16 0.00 0.00
2:15 am 02:15 Clear 46 8 43 6 87 87 S 12 19 29.94 1014 10 16 0.00 0.00
2:35 am 02:35 Clear 46 8 43 6 87 87 S 10 17 29.94 1014 10 16 0.00 0.00
2:55 am 02:55 Clear 48 9 43 6 82 82 S 12 19 29.91 1013 10 16 0.00 0.00
3:15 am 03:15 Clear 48 9 43 6 82 82 S 10 17 29.91 1013 10 16 0.00 0.00
3:35 am 03:35 Clear 48 9 45 7 87 87 S 13 20 29.91 1013 10 16 0.00 0.00
3:55 am 03:55 Clear 48 9 45 7 87 87 S 10 17 29.88 1012 10 16 0.00 0.00
4:15 am 04:15 Mostly Clear 48 9 45 7 87 87 SSE 12 19 29.88 1012 10 16 0.00 0.00
4:35 am 04:35 Mostly Clear 48 9 45 7 87 87 S 13 20 29.88 1012 10 16 0.00 0.00
4:55 am 04:55 Partly Cloudy 48 9 45 7 87 87 S 12 19 29.85 1011 10 16 0.00 0.00
5:15 am 05:15 Partly Cloudy 48 9 45 7 87 87 S 13 20 29.85 1011 10 16 0.00 0.00
5:35 am 05:35 Mostly Clear 48 9 45 7 87 87 S 13 20 29.85 1011 10 16 0.00 0.00
5:55 am 05:55 Mostly Cloudy 48 9 45 7 87 87 SSE 10 17 29.85 1011 10 16 0.00 0.00
6:15 am 06:15 Mostly Cloudy 48 9 45 7 87 87 SSE 13 20 29.83 1010 10 16 0.00 0.00
6:35 am 06:35 Mostly Cloudy 50 10 45 7 82 82 SSE 16 26 29.77 1008 8 13 0.00 0.00
6:55 am 06:55 Cloudy 50 10 46 8 88 88 S 16 26 29.77 1008 8 13 0.00 0.00
7:15 am 07:15 Cloudy 52 11 46 8 82 82 S 17 28 29.77 1008 9 14 0.00 0.00
7:35 am 07:35 Cloudy 52 11 46 8 82 82 S 22 35 29.77 1008 9 14 0.00 0.00
7:55 am 07:55 Cloudy 52 11 46 8 82 82 S 20 31 29.77 1008 10 16 0.00 0.00
8:15 am 08:15 Cloudy 52 11 46 8 82 82 S 17 28 29.77 1008 7 11 0.00 0.00
8:35 am 08:35 Cloudy 52 11 46 8 82 82 S 15 24 29.77 1008 7 11 0.00 0.00
8:55 am 08:55 Cloudy 52 11 46 8 82 82 S 15 24 29.77 1008 6 10 0.00 0.00
9:15 am 09:15 Cloudy 54 12 48 9 82 82 S 18 30 29.74 1007 7 11 0.00 0.00
9:35 am 09:35 Cloudy 54 12 48 9 82 82 S 20 31 29.74 1007 8 13 0.00 0.00
9:55 am 09:55 Cloudy 54 12 48 9 82 82 S 15 24 29.74 1007 8 13 0.00 0.00
10:15 am 10:15 Cloudy 55 13 50 10 82 82 S 17 28 29.74 1007 8 13 0.00 0.00
10:35 am 10:35 Cloudy 57 14 50 10 77 77 S 18 30 29.71 1006 10 16 0.00 0.00
10:55 am 10:55 Partly Cloudy 57 14 50 10 77 77 S 16 26 29.71 1006 10 16 0.00 0.00
11:15 am 11:15 Sunny 59 15 52 11 77 77 S 14 22 29.71 1006 10 16 0.00 0.00
11:35 am 11:35 Sunny 59 15 50 10 72 72 S 15 24 29.68 1005 10 16 0.00 0.00
11:55 am 11:55 Sunny 61 16 50 10 68 68 SSW 14 22 29.68 1005 10 16 0.00 0.00
12:15 pm 12:15 Sunny 63 17 52 11 68 68 S 15 24 29.65 1004 10 16 0.00 0.00
12:35 pm 12:35 Sunny 66 19 52 11 60 60 SW 13 20 29.65 1004 10 16 0.00 0.00
12:55 pm 12:55 Sunny 66 19 50 10 56 56 SSW 15 24 29.62 1003 10 16 0.00 0.00
1:15 pm 13:15 Sunny 68 20 52 11 56 56 SSW 13 20 29.62 1003 10 16 0.00 0.00
1:35 pm 13:35 Sunny 70 21 50 10 50 50 SW 16 26 29.59 1002 10 16 0.00 0.00
1:55 pm 13:55 Sunny 70 21 50 10 50 50 SSW 13 20 29.56 1001 10 16 0.00 0.00
2:15 pm 14:15 Sunny 72 22 52 11 50 50 S 10 17 29.56 1001 10 16 0.00 0.00
2:35 pm 14:35 undefined 73 23 52 11 47 47 WSW 10 17 29.56 1001 N/A 0.00 0.00
2:55 pm 14:55 Sunny 73 23 50 10 44 44 SSW 8 13 29.53 1000 10 16 0.00 0.00
3:15 pm 15:15 Sunny 73 23 50 10 44 44 SSW 12 19 29.53 1000 10 16 0.00 0.00
3:35 pm 15:35 Sunny 75 24 50 10 41 41 SSW 9 15 29.50 999 10 16 0.00 0.00
3:55 pm 15:55 Sunny 75 24 50 10 41 41 WSW 14 22 29.53 1000 10 16 0.00 0.00
4:15 pm 16:15 Sunny 75 24 50 10 41 41 WSW 8 13 29.53 1000 10 16 0.00 0.00
4:35 pm 16:35 Sunny 75 24 48 9 39 39 W 5 7 29.53 1000 10 16 0.00 0.00
4:55 pm 16:55 Sunny 75 24 48 9 39 39 W 5 7 29.53 1000 10 16 0.00 0.00
5:15 pm 17:15 Sunny 75 24 48 9 39 39 Calm 29.53 1000 10 16 0.00 0.00
5:35 pm 17:35 Sunny 75 24 48 9 39 39 Calm 29.53 1000 10 16 0.00 0.00
5:55 pm 17:55 Sunny 75 24 48 9 39 39 Calm 29.59 1002 10 16 0.00 0.00
6:15 pm 18:15 Sunny 73 23 48 9 41 41 Calm 29.59 1002 10 16 0.00 0.00
6:35 pm 18:35 Clear 70 21 46 8 43 43 Calm 29.59 1002 10 16 0.00 0.00
6:55 pm 18:55 Clear 66 19 46 8 49 49 Calm 29.65 1004 10 16 0.00 0.00
7:15 pm 19:15 Clear 66 19 46 8 49 49 Calm 29.65 1004 10 16 0.00 0.00
7:35 pm 19:35 Clear 64 18 46 8 52 52 Calm 29.65 1004 10 16 0.00 0.00
7:55 pm 19:55 Clear 59 15 45 7 59 59 SE 3 6 29.68 1005 10 16 0.00 0.00
8:15 pm 20:15 Clear 61 16 46 8 59 59 Calm 29.71 1006 10 16 0.00 0.00
8:35 pm 20:35 Clear 59 15 45 7 59 59 Calm 29.71 1006 10 16 0.00 0.00
8:55 pm 20:55 Clear 59 15 45 7 59 59 Calm 29.71 1006 10 16 0.00 0.00
9:15 pm 21:15 Clear 57 14 45 7 63 63 Calm 29.71 1006 10 16 0.00 0.00
9:35 pm 21:35 Clear 57 14 45 7 63 63 WNW 5 7 29.71 1006 10 16 0.00 0.00
9:55 pm 21:55 Clear 55 13 45 7 67 67 Calm 29.74 1007 10 16 0.00 0.00
10:15 pm 22:15 Clear 55 13 46 8 72 72 SW 5 7 29.74 1007 10 16 0.00 0.00
10:35 pm 22:35 Clear 57 14 46 8 67 67 Calm 29.74 1007 10 16 0.00 0.00
10:55 pm 22:55 Clear 54 12 45 7 72 72 NW 6 9 29.77 1008 10 16 0.00 0.00
11:15 pm 23:15 Clear 55 13 43 6 63 63 NW 6 9 29.80 1009 10 16 0.00 0.00
11:35 pm 23:35 Clear 55 13 41 5 59 59 NW 8 13 29.80 1009 10 16 0.00 0.00
11:55 pm 23:55 Clear 55 13 39 4 55 55 NW 9 15 29.80 1009 10 16 0.00 0.00

Powered by AerisWeather